Regional Weather Roundup
Issued by NWS Upton, NY

Current Version | Previous Version | Graphics & Text | Print | Product List | Glossary Off
Versions: 1 2 3 4 5 6 7 8 9 10 11 12 13 14 15 16 17 18 19 20 21 22 23 24 25 26 27 28 29 30 31 32 33 34 35 36 37 38 39 40 41 42 43 44 45 46 47 48 49 50

000
ASUS41 KOKX 290108
RWROKX

REGIONAL WEATHER ROUNDUP
NATIONAL WEATHER SERVICE NEW YORK NY
900 PM EDT FRI APR 28 2017

NOTE: "FAIR" INDICATES FEW OR NO CLOUDS BELOW 12,000 FEET WITH NO
SIGNIFICANT WEATHER AND/OR OBSTRUCTIONS TO VISIBILITY.

NYZ071-072-176-178-NJZ106-104-290200-
NEW YORK CITY METRO AREA

CITY           SKY/WX    TMP DP  RH WIND       PRES   REMARKS
Central Park   CLEAR     77  41  27 VRB3      30.04R
Wall St Helipt CLEAR     75  43  31 SW6       30.03R
Bronx Bot Gard   N/A     68  52  56 CALM      30.02S
LaGuardia APRT MOCLDY    77  50  38 S6        30.01R
Kennedy INTL   MOCLDY    61  54  77 S3        30.04R
Breezy Point     N/A     57 N/A N/A S6          N/A
Newark/Liberty MOCLDY    77  40  26 SW8       30.02R
Teterboro      CLEAR     77  43  29 SW9       30.00R
$$

NYZ177-179-078>081-290200-
LONG ISLAND NEW YORK

CITY           SKY/WX    TMP DP  RH WIND       PRES   REMARKS
Jones Beach      N/A     57 N/A N/A SW10        N/A
Matinecock PT    N/A     73 N/A N/A S9          N/A
Farmingdale    CLEAR     64  54  69 SW7       30.04R
MacArthur/ISP  PTCLDY    63  55  75 SW9       30.04R
Shirley        CLEAR     62  55  77 SW5       30.05
Mt Sinai Harb    N/A     66 N/A N/A S12         N/A
Westhampton    CLOUDY    58  53  84 SW3       30.06R
East Hampton     N/A     57  54  89 SW6       30.04R
Montauk          N/A     57  54  89 S8        30.04R
$$

NYZ052-065-067-290200-
HUDSON VALLEY

CITY           SKY/WX    TMP DP  RH WIND       PRES   REMARKS
White Plains   CLEAR     68  54  60 CALM      30.02R
Larchmont Harb   N/A     63 N/A N/A SW9         N/A
Croton O-T Hud   N/A     70 N/A N/A CALM        N/A
Newburgh       PTCLDY    73  48  40 W8        30.03R
Montgomery     CLEAR     67  47  48 W5        30.01R
Poughkeepsie   PTCLDY    76  44  32 SW6       29.99R
Albany         MOCLDY    67  48  50 CALM      29.99R
$$

NJZ001-105-106-008-010-013-015-019>022-104-290200-
NEW JERSEY

CITY           SKY/WX    TMP DP  RH WIND       PRES   REMARKS
Newark/Liberty MOCLDY    77  40  26 SW8       30.02R
Teterboro      CLEAR     77  43  29 SW9       30.00R
Caldwell       CLEAR     75  42  30 CALM      30.03R
Somerville     PTCLDY    66  50  56 CALM      30.02R
Linden           N/A     77  39  25 W5        30.03R
Perth Amboy      N/A     75 N/A N/A W3          N/A
Sussex         PTCLDY    69  47  45 SW3       30.05R
Andover          N/A     66  53  63 CALM      30.05R
Trenton        PTCLDY    77  52  41 CALM      30.03R
Millville      CLOUDY    67  63  87 CALM      30.05R
Atlantic City  CLEAR     72  60  66 S8        30.06R
Wrightstown    CLEAR     72  53  51 SW6       30.02R
Toms River     PTCLDY    71  58  63 S8        30.05R
Belmar         PTCLDY    74  53  48 S5        30.05R
$$

PAZ047>061-062-071-290200-
EASTERN PENNSYLVANIA

CITY           SKY/WX    TMP DP  RH WIND       PRES   REMARKS
Philadelphia   MOCLDY    74  58  57 S8        30.04R
Allentown      PTCLDY    67  46  47 CALM      30.03R
Scranton       PTCLDY    67  43  41 S3        30.06R
$$

CTZ002-004>006-009-010-012-RIZ004-006-007-MAZ004-011-015-290200-
SOUTHERN NEW ENGLAND
 IN CT

CITY           SKY/WX    TMP DP  RH WIND       PRES   REMARKS
Bradley INTL   PTCLDY    74  56  53 S13       29.99R
Hartford       CLEAR     73  56  54 S8        29.99R
Danbury        PTCLDY    69  54  58 CALM      30.03R
Wtrbury/Oxford PTCLDY    70  52  52 SW9       30.02R
Bridgeport     CLEAR     65  54  67 SW8       30.02R
Meriden        PTCLDY    70  56  61 S5        30.02R
New Haven      PTCLDY    64  52  64 S3        30.02R
Chester          N/A     68  54  60 SW8       30.04R
Groton         PTCLDY    59  54  83 CALM      30.03R
Wilimantic     CLEAR     74  59  59 SW5       30.01R

 IN RI

CITY           SKY/WX    TMP DP  RH WIND       PRES   REMARKS
Providence     MOCLDY    67  59  75 S8        30.01R
Block Island   PTCLDY    54  52  93 SW17      30.04R
Westerly       PTCLDY    59  55  87 S5        30.04R
 IN MA

CITY           SKY/WX    TMP DP  RH WIND       PRES   REMARKS
Boston         PTCLDY    72  60  66 SW8       29.97R
Worcester      CLEAR     68  53  58 SW7       30.02R
Westfield      CLEAR     71  57  61 W8        29.99R
Provincetown   PTCLDY    57  55  93 SW16      30.00R
Nantucket      FOG       49  48  97 SW9       30.03R VSB 1/4
$$

ANZ330-335-338-340-345-350-353-355-290200-
COASTAL MARINE OBSERVATIONS


STATION/POSITION TIME  SKY/WX   TEMP    WIND        PRES    VSBY  WAVE
                                AIR SEA DIR/SP/G                  HT/PER
                 (UTC)          (F)     (DEG/KT/KT) (MB)    (MI)  (FT/S)
NY HARB ENTRANCE 2350            56 51  190/ 12/ 14 1016.3          4/ 7
20 S FIRE ISLAND 0050            54 49  190/ 14/ 16 1016.8          4/ 9
GREAT SOUTH BAY  0030            58 61  200/ 12/ 16   N/A
23 SSW MONTAUK P 2350            52 49              1016.8          4/ 8
15 E BARNEGAT LI 0030               53                N/A           5/ 8
HUDSON CANYON    2350            51 49  190/  8/  8 1018.0          5/ 8
KINGS POINT      0030            68 54  190/  7/ 11 1016.1
EXECUTION ROCKS  NOT AVBL
CENTRAL LI SOUND 0015            57     190/ 10/ 12   N/A           0
EASTERN LI SOUND NOT AVBL
ROBBINS REEF     0030            79     250/ 11/ 13 1016.5
$$


>>>>>>>>>>>>>>>>>>>>>>>>>>>> KEY <<<<<<<<<<<<<<<<<<<<<<<<<<<
>                                                          <
>     SKY/WX - Sky Condition/Present Weather               <
>     TMP    - Temperature in Fahrenheit                   <
>     DP     - Dew Point in Fahrenheit                     <
>     RH     - Relative Humidity in Percent                <
>     WIND   - Direction (from) and Speed in MPH           <
>     PRES   - Mean Sea Level Pressure (inches of Hg)      <
>     WCI    - Wind Chill Index                            <
>     VSB    - VISIBILITY IN MILES                         <
>     HX     - HEAT INDEX                                  <
>     TC     - TEMPERATURE IN CELSIUS                      <
>     VRB    - VARIABLE WIND DIRECTION                     <
>                                                          <
>>>>>>>>>>>>>>>>>>>>>>>>>>>> KEY <<<<<<<<<<<<<<<<<<<<<<<<<<<



USA.gov is the U.S. government's official web portal to all federal, state and local government web resources and services.